User: anonymous   Login
Location: Caltech
(34.1382°N, 118.1253°W)
Time: 09:26:55
(UTC-07:00)
Language:

Cosmos 2333 Rocket - Orbit

View from above orbital plane
View from above orbital plane
View from above satellite
View from above satellite

Ground track
Ground track

The orbit data is extracted from the following two-line orbital elements,

1 24298U 96051B   16150.45255299  .00000098  00000-0  79412-4 0  9994
2 24298  70.8336 150.9372 0013183  25.4035 334.7730 14.12402475 17630
Epoch (UTC): 29 May 2016 10:51:40
Eccentricity: 0.0013183
inclination: 70.8336°
perigee height: 841 km
apogee height: 860 km
right ascension of ascending node: 150.9372°
argument of perigee: 25.4035°
revolutions per day: 14.12402475
mean anomaly at epoch: 334.7730°
orbit number at epoch: 1763

The dashed part of the orbit path shows where the satellite is in the earth's shadow,  

DLR